Regional Weather Roundup
Issued by NWS

Home | Current Version | Previous Version | Text Only | Print | Product List | Glossary On
Versions: 1 2 3 4 5 6 7 8 9 10 11 12 13 14 15 16 17 18 19 20 21 22 23 24 25 26 27 28 29 30 31 32 33 34 35 36 37 38 39 40 41 42 43 44 45 46 47 48 49 50
000
ASUS45 KPSR 181010
RWRAZ

ARIZONA REGIONAL HOURLY WEATHER ROUNDUP
NATIONAL WEATHER SERVICE PHOENIX AZ
300 AM MST THU DEC 18 2014

NOTE: FAIR INDICATES FEW OR NO CLOUDS BELOW 12,000 FEET WITH NO
SIGNIFICANT WEATHER AND/OR OBSTRUCTIONS TO VISIBILITY.

AZZ001>003-036-181100-
NORTHWEST ARIZONA

CITY           SKY/WX    TMP DP  RH WIND       PRES   REMARKS
BULLHEAD CITY  CLOUDY    50  48  93 CALM      30.12S
KINGMAN        CLOUDY    40  37  89 SE3       30.10S
$$

AZZ004>008-015-016-018-181100-
NORTH CENTRAL ARIZONA

CITY           SKY/WX    TMP DP  RH WIND       PRES   REMARKS
GRAND CANYON   LGT SNOW  31  30  96 CALM      30.10S FOG
PRESCOTT       CLOUDY    33  30  88 CALM      30.09F
FLAGSTAFF      LGT SNOW  30  27  88 S6        30.09S FOG     WCI  24
PAYSON         PTCLDY    34  32  93 CALM      30.13S
PAGE           CLOUDY    38  33  82 W3        30.09S
$$

AZZ009>014-017-181100-
NORTHEAST ARIZONA

CITY           SKY/WX    TMP DP  RH WIND       PRES   REMARKS
WINSLOW        MOCLDY    31  28  89 E6        30.11R WCI  25
SAINT JOHNS    MOCLDY    31  28  89 CALM      30.10F
WINDOW ROCK    CLOUDY    31  27  85 E3        30.10S
SHOW LOW       CLOUDY    28  27  93 CALM      30.12F
$$

AZZ023-181100-
GREATER PHOENIX AREA

CITY           SKY/WX    TMP DP  RH WIND       PRES   REMARKS
PHOENIX        CLOUDY    53  49  86 SE5       30.10S
BUCKEYE          N/A     46  46 100 N6        30.11S
LUKE AFB       MOCLDY    46 N/A N/A N6        30.10F
DEER VALLEY    MOCLDY    50  47  89 E5        30.10S
SCOTTSDALE     MOCLDY    51  47  86 E3        30.12S
MESA-GATEWAY   MOCLDY    46  46 100 CALM      30.14R
$$

AZZ027-028-181100-
SOUTHWEST MARICOPA COUNTY AND PINAL COUNTY

CITY           SKY/WX    TMP DP  RH WIND       PRES   REMARKS
CASA GRANDE    CLOUDY    46  45  93 CALM      30.11F
GILA BEND      PTSUNNY   47  46  95 CALM      30.11F
$$

AZZ503-504-507>509-181100-
SOUTHEAST ARIZONA

CITY           SKY/WX    TMP DP  RH WIND       PRES   REMARKS
TUCSON         CLOUDY    48  46  93 CALM      30.13S
DAVIS-MONTHAN  MOCLDY    47  47 100 S3        30.11S
NOGALES        CLOUDY    47  43  86 CALM      30.12S
SIERRA VISTA   MOCLDY    43  41  93 SW3       30.13S
DOUGLAS        CLOUDY    42  40  92 CALM      30.13F
SAFFORD        CLOUDY    45  43  93 CALM      30.13S
$$

AZZ020-021-025-026-031-181100-
SOUTHWEST ARIZONA

CITY           SKY/WX    TMP DP  RH WIND       PRES   REMARKS
YUMA           CLOUDY   N/A  49 N/A CALM      30.08F
$$

CAZ031-033-041-043-047-048-061-181100-
SOUTHERN CALIFORNIA

CITY           SKY/WX    TMP DP  RH WIND       PRES   REMARKS
DOWNTOWN L.A.  CLEAR     50  45  83 CALM      30.11R
L.A. AIRPORT   MOCLDY    52  45  77 NE3       30.12R
SAN DIEGO      PTCLDY    54  45  71 NE3       30.14S
BURBANK        CLEAR     47  42  83 CALM      30.11R
ONTARIO        MOCLDY    49  43  80 CALM      30.11S
RIVERSIDE      CLEAR     48  44  86 CALM      30.12R
PALM SPRINGS   PTCLDY    52  48  86 N6        30.12R
EL CENTRO NAS  CLEAR     48  42  80 W6        30.08S
IMPERIAL       CLEAR     51  44  77 W5        30.08S
BLYTHE         CLOUDY    52  51  97 N3        30.09S
NEEDLES        CLOUDY    51  45  79 CALM      30.11R
$$

NVZ020-UTZ003-181100-
SOUTHERN NEVADA-UTAH

CITY           SKY/WX    TMP DP  RH WIND       PRES   REMARKS
LAS VEGAS      CLOUDY    49  43  80 S7        30.05R
SALT LAKE CITY PTCLDY    31  29  92 SE6       30.07R WCI  25
$$

NMZ009-TXZ055-181100-
NEW MEXICO-WEST TEXAS

CITY           SKY/WX    TMP DP  RH WIND       PRES   REMARKS
ALBUQUERQUE    PTCLDY    31  29  92 S6        30.13R WCI  25
EL PASO        PTCLDY    42  34  73 S6        30.13S
$$


........................KEY........................
SKY/WX - SKY CONDITION/WEATHER
TMP    - TEMPERATURE IN FAHRENHEIT
DP     - DEW POINT IN FAHRENHEIT
RH     - RELATIVE HUMIDITY IN PERCENT
WIND   - DIRECTION AND SPEED IN MILES PER HOUR (MPH)
VRB    - VARIABLE WIND DIRECTION
PRES   - MEAN SEA LEVEL PRESSURE IN INCHES OF MERCURY
         F - FALLING PRESSURE   R - RISING PRESSURE
         S - STEADY PRESSURE
VSB    - VISIBILITY IN MILES
HX     - HEAT INDEX IN FAHRENHEIT
WCI    - WIND CHILL INDEX IN FAHRENHEIT
TC     - TEMPERATURE IN CELSIUS WHICH IS ALSO KNOWN AS
         TEMPERATURE IN CENTIGRADE
AFB    - AIR FORCE BASE
         LUKE AFB IS LUKE AIR FORCE BASE
         DAVIS-MONTHAN IS DAVIS-MONTHAN AIR FORCE BASE
NAS    - NAVAL AIR STATION
         EL CENTRO NAS IS EL CENTRO NAVAL AIR STATION
N/A    - NOT AVAILABLE



USA.gov is the U.S. government's official web portal to all federal, state and local government web resources and services.